Starlink 3626

operational
NORAD ID: 51792 Int'l Des: 2022-017 Owner: SPXS Country: US Constellation: starlink
LEOCIRCULAR

Starlink 3626について

説明を読み込み中...

リアルタイム位置

3D地球を読み込み中...

次回通過

高度履歴

Altitude vs Time

uPlot chart will show altitude changes over time

軌道要素

1 51792U 22017AA 26093.80588345 .00000166 00000-0 28550-4 0 9994
2 51792 53.2177 236.3685 0002175 90.2108 269.9134 15.08845055227768
Epoch: Apr 3, 2026 • Age: 15 hours

現在のステータス

高度 543.1 km
速度 7.60 km/s
衛星直下点 44.94°N, 20.38°E
打ち上げ日 Feb 25, 2022
運用期間 4.1 years
タイプ internet

技術仕様

分類 Payload
質量 297.00 kg
乾燥質量 275.00 kg
総質量 297.00 kg
長さ 0.20 m
直径 2.80 m
スパン 9.00 m
形状 Box + pan
製造者 SPXS
バスタイプ Starlink
フェーズステータス In Orbit
所有者/国 SPXS/US

大規模コンステレーション

Loading constellations...